Farmington, MO

11:14 AM CDT on October 14, 2019 (GMT -0500)
Farmington Regional

Weather History for KFAM - July, 2019

Change the Weather History Date:

Saturday, July 27, 2019

  Actual Average Record
Temperature  
Mean Temperature 73 °F -  
Max Temperature 84 °F 83 °F 100 °F (2012)
Min Temperature 62 °F 65 °F 53 °F (2004)
Cooling Degree Days 8    
Growing Degree Days 23 (Base 50)    
Moisture  
Dew Point 64 °F    
Average Humidity 81    
Maximum Humidity 100    
Minimum Humidity 51    
Precipitation  
Precipitation 0.00 in - - ()
Sea Level Pressure  
Sea Level Pressure 30.23 in    
Wind  
Wind Speed 2 mph (South)    
Max Wind Speed 10 mph    
Max Gust Speed 16 mph    
Visibility 7 miles    
Events      
Averages and records for this station are not official NWS values.
T = Trace of Precipitation, MM = Missing Value Source: NWS Daily Summary

Daily Weather History Graph

Daily Weather History Graph

Search for Another Location

Airport or City:

Astronomy

Jul. 27, 2019 Rise Set
Actual Time 6:00 AM CDT 8:15 PM CDT
Civil Twilight 5:31 AM CDT 8:44 PM CDT
Nautical Twilight 4:55 AM CDT 9:20 PM CDT
Astronomical Twilight 4:15 AM CDT 10:00 PM CDT
Moon 1:45 AM CDT (7/27) 4:06 PM CDT (7/27)
Length of Visible Light 15h 13m
Length of Day
14h 14m
Waning Crescent, 24% of the Moon is Illuminated
Jul 27
Waning Crescent
Jul 31
New
Aug 7
First Quarter
Aug 15
Full
Aug 23
Last Quarter

Hourly Weather History & Observations

Time (CDT) Temp. Heat Index Dew Point Humidity Pressure Visibility Wind Dir Wind Speed Gust Speed Precip Events Conditions
12:56 AM 66.0 °F - 64.0 °F 93% 30.24 in 10.0 mi Calm Calm - N/A   Clear
1:56 AM 64.9 °F - 64.0 °F 97% 30.23 in 9.0 mi Calm Calm - N/A   Clear
2:34 AM 64.4 °F - 64.4 °F 100% 30.23 in 2.0 mi Calm Calm - N/A   Clear
2:44 AM 64.4 °F - 64.4 °F 100% 30.22 in 6.0 mi Calm Calm - N/A   Clear
2:52 AM 64.4 °F - 64.4 °F 100% 30.22 in 2.0 mi Calm Calm - N/A   Clear
2:56 AM 64.0 °F - 63.0 °F 96% 30.23 in 4.0 mi Calm Calm - N/A   Clear
3:24 AM 62.6 °F - 62.6 °F 100% 30.22 in 2.0 mi Calm Calm - N/A   Clear
3:37 AM 62.6 °F - 62.6 °F 100% 30.22 in 1.2 mi Calm Calm - N/A   Clear
3:47 AM 62.6 °F - 62.6 °F 100% 30.22 in 3.0 mi Calm Calm - N/A   Clear
4:05 AM 62.6 °F - 62.6 °F 100% 30.22 in 1.5 mi Calm Calm - N/A   Clear
4:09 AM 62.6 °F - 62.6 °F 100% 30.22 in 0.8 mi Calm Calm - N/A   Clear
4:15 AM 62.6 °F - 62.6 °F 100% 30.22 in 1.2 mi Calm Calm - N/A   Clear
4:17 AM 62.6 °F - 62.6 °F 100% 30.22 in 3.0 mi Calm Calm - N/A   Clear
4:56 AM 63.0 °F - 62.1 °F 97% 30.24 in 8.0 mi Calm Calm - N/A   Clear
5:56 AM 62.1 °F - 62.1 °F 100% 30.25 in 6.0 mi Calm Calm - N/A   Clear
6:56 AM 64.0 °F - 63.0 °F 96% 30.26 in 10.0 mi Calm Calm - N/A   Clear
7:04 AM 64.4 °F - 62.6 °F 94% 30.25 in 10.0 mi South 3.5 mph - N/A   Partly Cloudy
7:56 AM 66.9 °F - 64.9 °F 93% 30.28 in 10.0 mi Calm Calm - N/A   Clear
8:36 AM 69.8 °F - 66.2 °F 88% 30.27 in 10.0 mi Calm Calm - N/A   Partly Cloudy
8:56 AM 73.0 °F - 66.9 °F 81% 30.28 in 10.0 mi Calm Calm - N/A   Clear
9:56 AM 79.0 °F - 66.0 °F 64% 30.27 in 10.0 mi West 5.8 mph - N/A   Partly Cloudy
10:56 AM 81.0 °F 82.7 °F 64.9 °F 58% 30.27 in 10.0 mi SSW 9.2 mph - N/A   Clear
11:56 AM 82.0 °F 83.4 °F 64.0 °F 54% 30.26 in 10.0 mi SSW 6.9 mph - N/A   Partly Cloudy
12:56 PM 84.0 °F 85.8 °F 64.9 °F 53% 30.24 in 10.0 mi SSW 9.2 mph - N/A   Partly Cloudy
1:56 PM 84.0 °F 85.8 °F 64.9 °F 53% 30.22 in 10.0 mi South 5.8 mph 16.1 mph N/A   Scattered Clouds
2:56 PM 84.0 °F 85.8 °F 64.9 °F 53% 30.22 in 10.0 mi South 6.9 mph - N/A   Scattered Clouds
3:56 PM 84.9 °F 86.6 °F 64.9 °F 51% 30.20 in 10.0 mi SSW 6.9 mph - N/A   Partly Cloudy
4:56 PM 84.9 °F 87.1 °F 66.0 °F 53% 30.20 in 10.0 mi South 10.4 mph - N/A   Partly Cloudy
5:56 PM 84.0 °F 85.8 °F 64.9 °F 53% 30.19 in 10.0 mi SSW 9.2 mph - N/A   Clear
6:07 PM 82.4 °F 84.6 °F 66.2 °F 58% 30.18 in 10.0 mi South 10.4 mph - N/A   Partly Cloudy
6:56 PM 81.0 °F 83.3 °F 66.9 °F 62% 30.19 in 10.0 mi South 5.8 mph - N/A   Clear
7:15 PM 78.8 °F - 66.2 °F 65% 30.18 in 10.0 mi South 6.9 mph - N/A   Partly Cloudy
7:56 PM 78.1 °F - 66.9 °F 68% 30.19 in 10.0 mi South 5.8 mph - N/A   Partly Cloudy
8:56 PM 73.9 °F - 66.9 °F 79% 30.19 in 10.0 mi South 3.5 mph - N/A   Clear
9:56 PM 72.0 °F - 66.9 °F 84% 30.19 in 10.0 mi SSE 3.5 mph - N/A   Clear